| time (UTC) | temp F | wind direction | speed knots | gust knots | rain 1hr in | rain 24hr in | rain mn in | humidity % | barometer mb |
| 20260503021802 | 50 | 227 | 0.0 | 0.9 | 0.00 | 0.13 | 0.00 | 99 | 1007.2 |
| 20260503020902 | 50 | 0 | 0.0 | 0.0 | 0.00 | 0.13 | 0.00 | 99 | 1007.3 |
| 20260503020002 | 50 | 219 | 0.0 | 0.9 | 0.00 | 0.13 | 0.00 | 99 | 1007.1 |
| 20260503015403 | 50 | 223 | 0.0 | 0.9 | 0.00 | 0.13 | 0.00 | 99 | 1007.3 |
| 20260503014523 | 50 | 207 | 0.0 | 0.9 | 0.00 | 0.13 | 0.00 | 99 | 1007.3 |
| 20260503013602 | 50 | 227 | 0.0 | 0.9 | 0.00 | 0.13 | 0.00 | 99 | 1007.3 |
| 20260503012703 | 50 | 206 | 0.0 | 0.9 | 0.00 | 0.13 | 0.00 | 99 | 1007.6 |
| 20260503011823 | 50 | 199 | 0.0 | 0.9 | 0.00 | 0.13 | 0.00 | 99 | 1007.6 |
| 20260503010903 | 50 | 215 | 0.0 | 0.9 | 0.00 | 0.13 | 0.00 | 99 | 1007.7 |
| 20260503010002 | 50 | 240 | 0.0 | 0.9 | 0.00 | 0.13 | 0.00 | 99 | 1007.5 |
| 20260503005403 | 50 | 0 | 0.0 | 0.0 | 0.00 | 0.13 | 0.00 | 99 | 1007.7 |
| 20260503004503 | 50 | 190 | 0.0 | 0.9 | 0.00 | 0.13 | 0.00 | 99 | 1007.6 |
| 20260503003603 | 50 | 170 | 0.0 | 0.9 | 0.00 | 0.13 | 0.00 | 99 | 1007.7 |
| 20260503002702 | 50 | 0 | 0.0 | 0.0 | 0.00 | 0.13 | 0.00 | 99 | 1007.9 |
| 20260503001802 | 50 | 0 | 0.0 | 0.0 | 0.00 | 0.13 | 0.00 | 99 | 1007.8 |
| 20260503000924 | 50 | 0 | 0.0 | 0.0 | 0.00 | 0.13 | 0.00 | 99 | 1007.7 |
| 20260503000003 | 49 | 0 | 0.0 | 0.0 | 0.00 | 0.13 | 0.00 | 99 | 1007.8 |
| 20260502235403 | 49 | 0 | 0.0 | 0.0 | 0.00 | 0.13 | 0.00 | 99 | 1007.7 |
| 20260502234524 | 49 | 0 | 0.0 | 0.0 | 0.00 | 0.13 | 0.00 | 99 | 1007.9 |
| 20260502233602 | 49 | 0 | 0.0 | 0.0 | 0.00 | 0.13 | 0.00 | 99 | 1007.9 |
| 20260502232724 | 49 | 0 | 0.0 | 0.0 | 0.00 | 0.13 | 0.00 | 98 | 1007.8 |
| 20260502231803 | 49 | 0 | 0.0 | 0.0 | 0.00 | 0.13 | 0.00 | 98 | 1007.9 |
| 20260502230903 | 49 | 0 | 0.0 | 0.0 | 0.00 | 0.13 | 0.00 | 98 | 1007.9 |
| 20260502230003 | 49 | 0 | 0.0 | 0.0 | 0.00 | 0.13 | 0.00 | 98 | 1007.9 |
| 20260502225402 | 49 | 0 | 0.0 | 0.0 | 0.00 | 0.13 | 0.13 | 98 | 1007.7 |
| 20260502224503 | 49 | 0 | 0.0 | 0.0 | 0.00 | 0.13 | 0.13 | 98 | 1007.8 |
| 20260502223602 | 49 | 194 | 0.0 | 0.9 | 0.00 | 0.13 | 0.13 | 98 | 1007.7 |
| 20260502222702 | 49 | 0 | 0.0 | 0.0 | 0.00 | 0.13 | 0.13 | 98 | 1007.7 |
| 20260502221824 | 49 | 0 | 0.0 | 0.0 | 0.00 | 0.13 | 0.13 | 98 | 1007.8 |
| 20260502220924 | 49 | 0 | 0.0 | 0.0 | 0.01 | 0.13 | 0.13 | 98 | 1007.9 |
| 20260502220002 | 50 | 183 | 0.0 | 0.9 | 0.01 | 0.13 | 0.13 | 98 | 1007.7 |
| 20260502215402 | 50 | 174 | 0.0 | 0.9 | 0.01 | 0.13 | 0.13 | 98 | 1007.9 |
| 20260502214502 | 50 | 0 | 0.0 | 0.0 | 0.02 | 0.13 | 0.13 | 98 | 1007.8 |
| 20260502213602 | 50 | 173 | 0.0 | 0.9 | 0.02 | 0.13 | 0.13 | 98 | 1007.9 |
| 20260502212703 | 50 | 205 | 0.0 | 2.6 | 0.03 | 0.13 | 0.13 | 98 | 1007.9 |
| 20260502211802 | 50 | 172 | 0.0 | 0.9 | 0.03 | 0.13 | 0.13 | 98 | 1007.8 |
| 20260502210903 | 50 | 194 | 0.0 | 1.7 | 0.02 | 0.12 | 0.12 | 98 | 1008.1 |
| 20260502210003 | 50 | 181 | 0.0 | 1.7 | 0.03 | 0.12 | 0.12 | 98 | 1008.1 |
| 20260502205424 | 50 | 176 | 0.0 | 1.7 | 0.03 | 0.12 | 0.12 | 98 | 1008.3 |
| 20260502204524 | 50 | 173 | 0.0 | 1.7 | 0.02 | 0.11 | 0.11 | 98 | 1008.0 |
| 20260502203603 | 51 | 193 | 0.0 | 1.7 | 0.03 | 0.11 | 0.11 | 98 | 1008.1 |
| 20260502202703 | 51 | 183 | 0.0 | 0.9 | 0.02 | 0.10 | 0.10 | 98 | 1008.1 |
| 20260502201803 | 51 | 210 | 0.0 | 0.9 | 0.03 | 0.10 | 0.10 | 98 | 1008.2 |
| 20260502200903 | 51 | 224 | 0.9 | 1.7 | 0.04 | 0.10 | 0.10 | 98 | 1008.1 |
| 20260502200024 | 51 | 203 | 0.9 | 1.7 | 0.03 | 0.09 | 0.09 | 97 | 1008.3 |
| 20260502194503 | 52 | 213 | 0.9 | 2.6 | 0.04 | 0.09 | 0.09 | 97 | 1008.4 |
| 20260502193603 | 52 | 214 | 0.9 | 2.6 | 0.04 | 0.08 | 0.08 | 96 | 1008.2 |
| 20260502192703 | 52 | 202 | 0.9 | 1.7 | 0.04 | 0.08 | 0.08 | 96 | 1008.4 |
| 20260502191803 | 52 | 194 | 0.0 | 1.7 | 0.03 | 0.07 | 0.07 | 95 | 1008.3 |
| 20260502190903 | 52 | 186 | 0.9 | 1.7 | 0.03 | 0.06 | 0.06 | 94 | 1008.4 |
| 20260502190003 | 52 | 210 | 0.0 | 0.9 | 0.03 | 0.06 | 0.06 | 93 | 1008.4 |
| 20260502185403 | 52 | 183 | 0.0 | 1.7 | 0.02 | 0.05 | 0.05 | 92 | 1008.5 |
| 20260502184503 | 52 | 214 | 0.0 | 0.9 | 0.02 | 0.05 | 0.05 | 92 | 1008.4 |
| 20260502183624 | 52 | 196 | 0.0 | 1.7 | 0.01 | 0.04 | 0.04 | 92 | 1008.4 |
| 20260502182703 | 52 | 170 | 0.0 | 0.9 | 0.01 | 0.04 | 0.04 | 92 | 1008.1 |
| 20260502181803 | 52 | 165 | 0.0 | 1.7 | 0.01 | 0.04 | 0.04 | 92 | 1008.0 |
| 20260502180903 | 53 | 168 | 0.0 | 1.7 | 0.00 | 0.03 | 0.03 | 92 | 1007.9 |
| 20260502163603 | 53 | 184 | 0.0 | 1.7 | 0.02 | 0.02 | 0.02 | 94 | 1008.3 |
| 20260502162703 | 52 | 210 | 0.9 | 1.7 | 0.02 | 0.02 | 0.02 | 94 | 1008.3 |
| 20260502161824 | 53 | 198 | 0.9 | 1.7 | 0.02 | 0.02 | 0.02 | 94 | 1008.3 |
| 20260502160903 | 52 | 189 | 0.9 | 2.6 | 0.02 | 0.02 | 0.02 | 94 | 1008.5 |
| 20260502151803 | 55 | 229 | 1.7 | 3.5 | 0.00 | 0.00 | 0.00 | 87 | 1009.1 |
| 20260502150903 | 56 | 194 | 0.9 | 3.5 | 0.00 | 0.00 | 0.00 | 84 | 1009.1 |
| 20260502123603 | 56 | 211 | 1.7 | 7.0 | 0.00 | 0.00 | 0.00 | 85 | 1010.4 |
| 20260502122703 | 56 | 165 | 1.7 | 7.0 | 0.00 | 0.00 | 0.00 | 84 | 1010.5 |
| 20260502121803 | 56 | 165 | 1.7 | 5.2 | 0.00 | 0.00 | 0.00 | 83 | 1010.7 |
| 20260502120903 | 56 | 190 | 1.7 | 5.2 | 0.00 | 0.00 | 0.00 | 83 | 1010.6 |
| 20260502115403 | 57 | 225 | 1.7 | 6.1 | 0.00 | 0.00 | 0.00 | 80 | 1010.7 |
| 20260502114524 | 57 | 238 | 0.9 | 2.6 | 0.00 | 0.00 | 0.00 | 79 | 1010.7 |
| 20260502113603 | 57 | 234 | 1.7 | 3.5 | 0.00 | 0.00 | 0.00 | 79 | 1010.7 |
| 20260502112703 | 58 | 220 | 0.9 | 3.5 | 0.00 | 0.00 | 0.00 | 78 | 1010.4 |
| 20260502111803 | 59 | 212 | 0.9 | 3.5 | 0.00 | 0.00 | 0.00 | 71 | 1010.6 |
| 20260502110903 | 60 | 180 | 0.9 | 1.7 | 0.00 | 0.00 | 0.00 | 71 | 1010.6 |
| 20260502110023 | 60 | 192 | 0.9 | 2.6 | 0.00 | 0.00 | 0.00 | 72 | 1010.6 |
| 20260502105402 | 59 | 205 | 1.7 | 3.5 | 0.00 | 0.00 | 0.00 | 72 | 1010.5 |
| 20260502104501 | 58 | 189 | 1.7 | 7.8 | 0.00 | 0.00 | 0.00 | 74 | 1010.7 |
| 20260502103601 | 58 | 180 | 0.9 | 3.5 | 0.00 | 0.00 | 0.00 | 75 | 1011.0 |
| 20260502102701 | 58 | 212 | 0.9 | 3.5 | 0.00 | 0.00 | 0.00 | 74 | 1010.7 |
| 20260502100901 | 58 | 208 | 0.9 | 6.1 | 0.00 | 0.00 | 0.00 | 78 | 1010.8 |
| 20260502090902 | 60 | 166 | 0.9 | 3.5 | 0.00 | 0.00 | 0.00 | 70 | 1011.1 |
| 20260502070902 | 55 | 157 | 0.9 | 5.2 | 0.00 | 0.00 | 0.00 | 79 | 1011.2 |
| 20260502070002 | 53 | 189 | 0.9 | 5.2 | 0.00 | 0.00 | 0.00 | 82 | 1011.2 |
| 20260502065423 | 52 | 193 | 0.0 | 3.5 | 0.00 | 0.00 | 0.00 | 83 | 1011.3 |
| 20260502064502 | 52 | 200 | 0.0 | 1.7 | 0.00 | 0.00 | 0.00 | 83 | 1011.6 |
| 20260502063602 | 52 | 195 | 0.0 | 1.7 | 0.00 | 0.00 | 0.00 | 84 | 1011.2 |
| 20260502062702 | 51 | 193 | 0.0 | 1.7 | 0.00 | 0.00 | 0.00 | 85 | 1011.3 |
| 20260502061823 | 51 | 167 | 0.9 | 2.6 | 0.00 | 0.00 | 0.00 | 85 | 1011.5 |
| 20260502060902 | 50 | 200 | 0.0 | 1.7 | 0.00 | 0.00 | 0.00 | 88 | 1011.6 |
| 20260502060002 | 50 | 168 | 0.0 | 1.7 | 0.00 | 0.00 | 0.00 | 90 | 1011.4 |
| 20260502055402 | 49 | 150 | 0.0 | 1.7 | 0.00 | 0.00 | 0.00 | 91 | 1011.4 |
| 20260502054523 | 48 | 153 | 0.0 | 0.9 | 0.00 | 0.00 | 0.00 | 92 | 1011.5 |
| 20260502053602 | 48 | 173 | 0.0 | 0.9 | 0.00 | 0.00 | 0.00 | 93 | 1011.5 |
| 20260502052702 | 47 | 165 | 0.0 | 0.9 | 0.00 | 0.00 | 0.00 | 93 | 1011.5 |
| 20260502051802 | 47 | 191 | 0.0 | 1.7 | 0.00 | 0.00 | 0.00 | 93 | 1011.4 |
| 20260502050902 | 47 | 0 | 0.0 | 0.0 | 0.00 | 0.00 | 0.00 | 92 | 1011.5 |
| 20260502050002 | 47 | 144 | 0.0 | 0.9 | 0.00 | 0.00 | 0.00 | 92 | 1011.5 |
| 20260502045402 | 47 | 102 | 0.0 | 0.9 | 0.00 | 0.00 | 0.00 | 92 | 1011.5 |
| 20260502044523 | 48 | 154 | 0.0 | 0.9 | 0.00 | 0.00 | 0.00 | 92 | 1011.6 |
| 20260502043602 | 48 | 153 | 0.0 | 1.7 | 0.00 | 0.00 | 0.00 | 92 | 1011.6 |
| 20260502042702 | 48 | 0 | 0.0 | 0.0 | 0.00 | 0.00 | 0.00 | 92 | 1011.7 |
| 20260502041802 | 48 | 0 | 0.0 | 0.0 | 0.00 | 0.00 | 0.00 | 92 | 1011.8 |
| 20260502040902 | 47 | 0 | 0.0 | 0.0 | 0.00 | 0.00 | 0.00 | 91 | 1011.6 |
| 20260502040023 | 48 | 0 | 0.0 | 0.0 | 0.00 | 0.00 | 0.00 | 91 | 1011.8 |
| 20260502035423 | 48 | 0 | 0.0 | 0.0 | 0.00 | 0.00 | 0.00 | 90 | 1011.8 |
| 20260502034502 | 49 | 0 | 0.0 | 0.0 | 0.00 | 0.00 | 0.00 | 89 | 1011.8 |
| 20260502033602 | 49 | 176 | 0.0 | 1.7 | 0.00 | 0.00 | 0.00 | 88 | 1011.9 |
| 20260502032702 | 50 | 170 | 0.0 | 1.7 | 0.00 | 0.00 | 0.00 | 88 | 1011.9 |
| 20260502031823 | 50 | 163 | 0.0 | 1.7 | 0.00 | 0.00 | 0.00 | 89 | 1012.1 |
| 20260502030902 | 50 | 103 | 0.0 | 0.9 | 0.00 | 0.00 | 0.00 | 89 | 1012.2 |
| 20260502030002 | 50 | 0 | 0.0 | 0.0 | 0.00 | 0.00 | 0.00 | 88 | 1012.3 |
| 20260502025402 | 50 | 183 | 0.0 | 0.9 | 0.00 | 0.00 | 0.00 | 88 | 1012.4 |
| 20260502024502 | 50 | 183 | 0.0 | 2.6 | 0.00 | 0.00 | 0.00 | 88 | 1012.4 |
| 20260502023623 | 50 | 181 | 0.0 | 2.6 | 0.00 | 0.00 | 0.00 | 88 | 1012.5 |
| 20260502022702 | 50 | 187 | 0.0 | 3.5 | 0.00 | 0.00 | 0.00 | 88 | 1012.5 |